STARLINK-2162, 47748

Orbit data source: Space-Track

STARLINK-2162, 47748 is a payload satellite owned by SpaceX/Seattle (US) in LEO that was launched on Thu, 04 Mar 2021 UTC via an FALCON 9 launch vehicle from the Air Force Eastern Test Range (AFETR). Payload-class satellites include a variety of spacecraft equipped with specific instruments for various scientific and technological missions. These include communications satellites like Starlink; space stations such as the ISS; scientific satellites like the Hubble; Earth observation satellites from companies like Planet Labs, Umbra, and HawkEye 360; GPS; miniature CubeSats for education and research; and military/defense satellites.

Loading next visibility...
Identifier
47748, 2021-017AC
Orbit
LEO
Country
Flag of USUS
Related business
Manufacturer
SpaceX/Seattle
Mission
Operational Commercial Communications
Bus & Motor
STARLINK, Unknown motor
Mass
260 kg wet, ~248 kg dry
Launch date (UTC)
2021-03-04 (5 years ago)
Launch vehicle
FALCON 9
Launch site
Air Force Eastern Test Range (AFETR)
Object type
Payload
Rocket body
Debris
Shape & HBR
Box + 1 Pan, 10.1 m
Radar Cross Section
13.562 m², Large (>1 m²)

Expand to show TLE details & history
Last TLE update: 16 hours ago

TLE from 16 hours ago
0 STARLINK-2162
1 47748U 21017AC  25346.94578087 -.00003775  00000-0 -23478-3 0  9990
2 47748  53.0539 231.0267 0001563  83.6487 276.4680 15.06384467264794
Epoch: 2025-12-12T22:41Z
TLE epoch observation values (Epoch: 2025-12-12T22:41:55.467Z)
Latitude
-0°
Longitude
168.66547°
Altitude
548.016 km
Speed
7.589 km/s
True Right ascension
15h 24m 06s
True Declination
0° 00' 00"
Sunlit
Object was in daylight at epoch
Visualization orbit readout
Latitude
Unknown
Longitude
Unknown
Altitude
Unknown
Speed
Unknown
Apparent Right ascension
Unknown
Apparent Declination
Unknown
Sunlit
N/A
Visualization observer readout
Local Sidereal Time
13:00:29
Azimuth
Unknown
Elevation
Unknown
Doppler factor
Unknown
Orbital elements
Apogee altitude
548.612 km
Perigee altitude
546.447 km
Semi-major axis
6,925.667 km
Eccentricity
0.00016
Inclination
53.0539°
RAAN
231.0267°
Arg. of periapsis
83.6487°
True anomaly
276.4502°
Mean anomaly
276.468°
Eccentric anomaly
276.4591°
Mean motion
3.76574 °/min
Orbital period
95.6 mins
BSTAR
-0.00023478
Loading maneuver chart data...
Computing Atmospheric mass density...
Loading historical data...
Loading historical data...
Loading historical data...
Loading historical data...
Loading historical data...
Loading historical data...
Loading historical data...

Documentation

Showing up to 5 results
|